Weather in Dedino

Russia / Pskov Oblast     56°14′34″N   28°14′54″E
temp.,
°C
wind,
m/s
gust,
m/s
humid.,
%
clouds,
%
prec.,
mm/h
press.,
hPa
HPBL,
m
28 february, sun
sun2800:000nw3894100 0.1 1023515
03:00−1wnw379595 0.1 1023300
06:00−1w4987100 0.0 1021447
09:00+1wnw41197100 0.8 1019572
12:00+1wnw51195100 0.9 1018629
15:00+2nw4997100 1.3 1018560
18:00+2nnw3898100 0.3 1019455
21:00+2n2797100 0.4 1022356
1 march, mon
mon100:00+1nw259892 0.0 1024176
03:00+1nw259793 0.0 1027191
06:00−1w239745 0.0 102692
09:000w389530 0.0 1027277
12:00+2w469165 0.0 1027350
15:00+3w479283 0.0 1026367
18:00+2wsw3993100 0.0 1024386
21:00+2wsw4139299 0.0 1023515
2 march, tue
tue200:00+3w41390100 0.0 1021671
03:00+2wnw41193100 0.0 1020413
06:00+1wnw41094100 0.0 1019335
09:00+1w4119198 0.0 1018391
12:00+3w51182100 0.1 1017491
15:00+4nw51182100 0.1 10181010
18:00+3nw4127965 0.0 1019864
21:00+1nnw5148132 0.0 1022842
3 march, wed
wed300:000nw412870 0.0 1024577
03:00−2wnw38910 0.0 1025270
06:00−2wnw49921 0.0 1025353
09:00−1wnw410871 0.0 1025416
12:00+2wnw48730 0.0 1024720
15:00+4w48680 0.0 1022971
18:00+2wsw3108035 0.0 1020455
21:00+1wsw4128155 0.0 1017407
4 march, thu
thu400:000sw515760 0.0 1013627
03:00+1w6118816 0.0 1010957
06:00+1w5108998 0.1 1008628
09:00+1wnw5108999 0.1 1007823
12:000nnw4888100 1.0 1007672
15:000nw4660100 1.2 10071184
18:00−1nw276747 0.0 1007430
21:00−3nw237729 0.0 100876